owner,sensor,date,latitude,longitude,vertical_datum,direction_of_sea_water_velocity,sea_water_speed,upward_sea_water_velocity,qcFlag 
TABS,ioos:station:wmo:42043:1,2005-07-01T00:00:00Z,28.9818,-94.9186,2.0,349.0048964,5.714910323,-99999.0,'11133222,11111222,99999999' 
TABS,ioos:station:wmo:42043:1,2005-07-01T00:30:00Z,28.9818,-94.9186,2.0,335.4913623,5.110469646,-99999.0,'11133222,11111222,99999999' 
TABS,ioos:station:wmo:42043:1,2005-07-01T01:00:00Z,28.9818,-94.9186,2.0,35.2955986,2.474934343,-99999.0,'11133222,11111222,99999999' 
TABS,ioos:station:wmo:42043:1,2005-07-01T01:30:00Z,28.9818,-94.9186,2.0,58.01384125,6.343027668,-99999.0,'11133222,11111222,99999999' 
TABS,ioos:station:wmo:42043:1,2005-07-01T02:00:00Z,28.9818,-94.9186,2.0,73.14370857,8.035234906,-99999.0,'11133222,11111222,99999999' 
TABS,ioos:station:wmo:42043:1,2005-07-01T02:30:00Z,28.9818,-94.9186,2.0,80.35796513,14.14989046,-99999.0,'11111222,11111222,99999999' 
TABS,ioos:station:wmo:42043:1,2005-07-01T03:00:00Z,28.9818,-94.9186,2.0,103.3296448,11.40731783,-99999.0,'11111222,11111222,99999999' 
TABS,ioos:station:wmo:42043:1,2005-07-01T03:30:00Z,28.9818,-94.9186,2.0,102.9415226,12.94891501,-99999.0,'11111222,11111222,99999999' 
TABS,ioos:station:wmo:42043:1,2005-07-01T04:00:00Z,28.9818,-94.9186,2.0,95.5468334,18.10477561,-99999.0,'11111222,11111222,99999999' 
TABS,ioos:station:wmo:42043:1,2005-07-01T04:30:00Z,28.9818,-94.9186,2.0,87.534467,24.87302555,-99999.0,'11111222,11111222,99999999' 
TABS,ioos:station:wmo:42043:1,2005-07-01T05:00:00Z,28.9818,-94.9186,2.0,97.57668943,25.33116065,-99999.0,'11111222,11111222,99999999' 
TABS,ioos:station:wmo:42043:1,2005-07-01T05:30:00Z,28.9818,-94.9186,2.0,93.43362233,26.54765715,-99999.0,'11111222,11111222,99999999' 
TABS,ioos:station:wmo:42043:1,2005-07-01T06:00:00Z,28.9818,-94.9186,2.0,92.40439741,24.55161502,-99999.0,'11111222,11111222,99999999' 
TABS,ioos:station:wmo:42043:1,2005-07-01T06:30:00Z,28.9818,-94.9186,2.0,96.42154521,25.66099959,-99999.0,'11111222,11111222,99999999' 
TABS,ioos:station:wmo:42043:1,2005-07-01T07:00:00Z,28.9818,-94.9186,2.0,94.1134951,26.34787468,-99999.0,'11111222,11111222,99999999' 
TABS,ioos:station:wmo:42043:1,2005-07-01T07:30:00Z,28.9818,-94.9186,2.0,99.28895104,26.08201871,-99999.0,'11111222,11111222,99999999' 
TABS,ioos:station:wmo:42043:1,2005-07-01T08:00:00Z,28.9818,-94.9186,2.0,95.08188863,27.65872376,-99999.0,'11111222,11111222,99999999' 
TABS,ioos:station:wmo:42043:1,2005-07-01T08:30:00Z,28.9818,-94.9186,2.0,97.52814551,29.61526633,-99999.0,'11111222,11111222,99999999' 
TABS,ioos:station:wmo:42043:1,2005-07-01T09:00:00Z,28.9818,-94.9186,2.0,94.81864937,29.40392661,-99999.0,'11111222,11111222,99999999' 
TABS,ioos:station:wmo:42043:1,2005-07-01T09:30:00Z,28.9818,-94.9186,2.0,97.49677109,32.11450918,-99999.0,'11111222,11111222,99999999' 
TABS,ioos:station:wmo:42043:1,2005-07-01T10:00:00Z,28.9818,-94.9186,2.0,96.09005949,34.40416545,-99999.0,'11111222,11111222,99999999' 
TABS,ioos:station:wmo:42043:1,2005-07-01T10:30:00Z,28.9818,-94.9186,2.0,98.59748289,33.1120839,-99999.0,'11111222,11111222,99999999' 
TABS,ioos:station:wmo:42043:1,2005-07-01T11:00:00Z,28.9818,-94.9186,2.0,93.35298877,32.48561066,-99999.0,'11111222,11111222,99999999' 
TABS,ioos:station:wmo:42043:1,2005-07-01T11:30:00Z,28.9818,-94.9186,2.0,94.72409972,27.68404775,-99999.0,'11111222,11111222,99999999' 
TABS,ioos:station:wmo:42043:1,2005-07-01T12:00:00Z,28.9818,-94.9186,2.0,95.02257944,33.80982106,-99999.0,'11111222,11111222,99999999' 
TABS,ioos:station:wmo:42043:1,2005-07-01T12:30:00Z,28.9818,-94.9186,2.0,91.78364768,28.59385423,-99999.0,'11111222,11111222,99999999' 
TABS,ioos:station:wmo:42043:1,2005-07-01T13:00:00Z,28.9818,-94.9186,2.0,92.63420728,29.59126898,-99999.0,'11111222,11111222,99999999' 
TABS,ioos:station:wmo:42043:1,2005-07-01T13:30:00Z,28.9818,-94.9186,2.0,91.83365877,27.81424275,-99999.0,'11111222,11111222,99999999' 
TABS,ioos:station:wmo:42043:1,2005-07-01T14:00:00Z,28.9818,-94.9186,2.0,94.72421067,20.51971247,-99999.0,'11111222,11111222,99999999' 
TABS,ioos:station:wmo:42043:1,2005-07-01T14:30:00Z,28.9818,-94.9186,2.0,98.2109192,19.045233,-99999.0,'11111222,11111222,99999999' 
TABS,ioos:station:wmo:42043:1,2005-07-01T15:00:00Z,28.9818,-94.9186,2.0,89.78997291,13.64009164,-99999.0,'11111222,11111222,99999999' 
TABS,ioos:station:wmo:42043:1,2005-07-01T15:30:00Z,28.9818,-94.9186,2.0,94.10278733,14.25653534,-99999.0,'11111222,11111222,99999999' 
TABS,ioos:station:wmo:42043:1,2005-07-01T16:00:00Z,28.9818,-94.9186,2.0,89.2082764,15.92152003,-99999.0,'11111222,11111222,99999999' 
TABS,ioos:station:wmo:42043:1,2005-07-01T16:30:00Z,28.9818,-94.9186,2.0,92.91898261,20.22624285,-99999.0,'11111222,11111222,99999999' 
TABS,ioos:station:wmo:42043:1,2005-07-01T17:00:00Z,28.9818,-94.9186,2.0,102.0068283,15.47863043,-99999.0,'11111222,11111222,99999999' 
TABS,ioos:station:wmo:42043:1,2005-07-01T17:30:00Z,28.9818,-94.9186,2.0,95.27334938,16.42953743,-99999.0,'11111222,11111222,99999999' 
TABS,ioos:station:wmo:42043:1,2005-07-01T18:00:00Z,28.9818,-94.9186,2.0,105.3185639,18.2068586,-99999.0,'11111222,11111222,99999999' 
TABS,ioos:station:wmo:42043:1,2005-07-01T18:30:00Z,28.9818,-94.9186,2.0,103.1480314,19.87090587,-99999.0,'11111222,11111222,99999999' 
TABS,ioos:station:wmo:42043:1,2005-07-01T19:00:00Z,28.9818,-94.9186,2.0,107.8130331,20.10378323,-99999.0,'11111222,11111222,99999999' 
TABS,ioos:station:wmo:42043:1,2005-07-01T19:30:00Z,28.9818,-94.9186,2.0,114.5910748,17.39798839,-99999.0,'11111222,11111222,99999999' 
TABS,ioos:station:wmo:42043:1,2005-07-01T20:00:00Z,28.9818,-94.9186,2.0,122.2274389,16.95161349,-99999.0,'11111222,11111222,99999999' 
TABS,ioos:station:wmo:42043:1,2005-07-01T20:30:00Z,28.9818,-94.9186,2.0,123.5359686,15.47619139,-99999.0,'11111222,11111222,99999999' 
TABS,ioos:station:wmo:42043:1,2005-07-01T21:00:00Z,28.9818,-94.9186,2.0,117.4035761,14.36156677,-99999.0,'11111222,11111222,99999999' 
TABS,ioos:station:wmo:42043:1,2005-07-01T21:30:00Z,28.9818,-94.9186,2.0,112.1918382,13.0788264,-99999.0,'11111222,11111222,99999999' 
TABS,ioos:station:wmo:42043:1,2005-07-01T22:00:00Z,28.9818,-94.9186,2.0,108.7223114,10.71709382,-99999.0,'11111222,11111222,99999999' 
TABS,ioos:station:wmo:42043:1,2005-07-01T22:30:00Z,28.9818,-94.9186,2.0,89.29029294,8.88068128,-99999.0,'11133222,11111222,99999999' 
TABS,ioos:station:wmo:42043:1,2005-07-01T23:00:00Z,28.9818,-94.9186,2.0,86.9537242,8.091433742,-99999.0,'11133222,11111222,99999999' 
TABS,ioos:station:wmo:42043:1,2005-07-01T23:30:00Z,28.9818,-94.9186,2.0,71.89404237,9.363658473,-99999.0,'11133222,11111222,99999999' 
TABS,ioos:station:wmo:42043:1,2005-07-02T00:00:00Z,28.9818,-94.9186,2.0,62.56934591,9.768259825,-99999.0,'11133222,11111222,99999999' 
TABS,ioos:station:wmo:42043:1,2005-07-02T00:30:00Z,28.9818,-94.9186,2.0,39.85942159,13.65257851,-99999.0,'11111222,11111222,99999999' 
TABS,ioos:station:wmo:42043:1,2005-07-02T01:00:00Z,28.9818,-94.9186,2.0,48.50454921,17.93040156,-99999.0,'11111222,11111222,99999999' 
TABS,ioos:station:wmo:42043:1,2005-07-02T01:30:00Z,28.9818,-94.9186,2.0,49.86842622,13.4978665,-99999.0,'11111222,11111222,99999999' 
TABS,ioos:station:wmo:42043:1,2005-07-02T02:00:00Z,28.9818,-94.9186,2.0,39.71648333,25.49345406,-99999.0,'11111222,11111222,99999999' 
TABS,ioos:station:wmo:42043:1,2005-07-02T02:30:00Z,28.9818,-94.9186,2.0,36.39973616,27.0469111,-99999.0,'11111222,11111222,99999999' 
TABS,ioos:station:wmo:42043:1,2005-07-02T03:00:00Z,28.9818,-94.9186,2.0,35.91662714,33.05457608,-99999.0,'11111222,11111222,99999999' 
TABS,ioos:station:wmo:42043:1,2005-07-02T03:30:00Z,28.9818,-94.9186,2.0,36.69117394,33.95816544,-99999.0,'11111222,11111222,99999999' 
TABS,ioos:station:wmo:42043:1,2005-07-02T04:00:00Z,28.9818,-94.9186,2.0,40.81021947,39.58356351,-99999.0,'11111222,11111222,99999999' 
TABS,ioos:station:wmo:42043:1,2005-07-02T04:30:00Z,28.9818,-94.9186,2.0,40.88556117,40.89840217,-99999.0,'11111222,11111222,99999999' 
TABS,ioos:station:wmo:42043:1,2005-07-02T05:00:00Z,28.9818,-94.9186,2.0,46.18069298,41.8696095,-99999.0,'11111222,11111222,99999999' 
TABS,ioos:station:wmo:42043:1,2005-07-02T05:30:00Z,28.9818,-94.9186,2.0,47.49444848,44.03083124,-99999.0,'11111222,11111222,99999999' 
TABS,ioos:station:wmo:42043:1,2005-07-02T06:00:00Z,28.9818,-94.9186,2.0,50.70140035,43.41900506,-99999.0,'11111222,11111222,99999999' 
TABS,ioos:station:wmo:42043:1,2005-07-02T06:30:00Z,28.9818,-94.9186,2.0,53.31162151,42.94821533,-99999.0,'11111222,11111222,99999999' 
TABS,ioos:station:wmo:42043:1,2005-07-02T07:00:00Z,28.9818,-94.9186,2.0,58.12559304,41.75660547,-99999.0,'11111222,11111222,99999999' 
TABS,ioos:station:wmo:42043:1,2005-07-02T07:30:00Z,28.9818,-94.9186,2.0,63.75498987,40.84018242,-99999.0,'11111222,11111222,99999999' 
TABS,ioos:station:wmo:42043:1,2005-07-02T08:00:00Z,28.9818,-94.9186,2.0,69.53777633,41.47709729,-99999.0,'11111222,11111222,99999999' 
TABS,ioos:station:wmo:42043:1,2005-07-02T08:30:00Z,28.9818,-94.9186,2.0,72.17326884,42.00690062,-99999.0,'11111222,11111222,99999999' 
TABS,ioos:station:wmo:42043:1,2005-07-02T09:00:00Z,28.9818,-94.9186,2.0,77.26689245,41.0597735,-99999.0,'11111222,11111222,99999999' 
TABS,ioos:station:wmo:42043:1,2005-07-02T09:30:00Z,28.9818,-94.9186,2.0,82.49601068,42.19133797,-99999.0,'11111222,11111222,99999999' 
TABS,ioos:station:wmo:42043:1,2005-07-02T10:00:00Z,28.9818,-94.9186,2.0,85.19796387,43.36220705,-99999.0,'11111222,11111222,99999999' 
TABS,ioos:station:wmo:42043:1,2005-07-02T10:30:00Z,28.9818,-94.9186,2.0,88.22731684,43.64088565,-99999.0,'11111222,11111222,99999999' 
TABS,ioos:station:wmo:42043:1,2005-07-02T11:00:00Z,28.9818,-94.9186,2.0,84.9533759,28.07884969,-99999.0,'11111222,11111222,99999999' 
TABS,ioos:station:wmo:42043:1,2005-07-02T11:30:00Z,28.9818,-94.9186,2.0,88.94950995,45.81770073,-99999.0,'11111222,11111222,99999999' 
TABS,ioos:station:wmo:42043:1,2005-07-02T12:00:00Z,28.9818,-94.9186,2.0,91.66518083,42.32787498,-99999.0,'11111222,11111222,99999999' 
TABS,ioos:station:wmo:42043:1,2005-07-02T12:30:00Z,28.9818,-94.9186,2.0,92.19993067,33.08438453,-99999.0,'11111222,11111222,99999999' 
TABS,ioos:station:wmo:42043:1,2005-07-02T13:00:00Z,28.9818,-94.9186,2.0,87.32831951,42.90663818,-99999.0,'11111222,11111222,99999999' 
TABS,ioos:station:wmo:42043:1,2005-07-02T13:30:00Z,28.9818,-94.9186,2.0,95.44031931,30.37683328,-99999.0,'11111222,11111222,99999999' 
TABS,ioos:station:wmo:42043:1,2005-07-02T14:00:00Z,28.9818,-94.9186,2.0,91.12914692,26.89522262,-99999.0,'11111222,11111222,99999999' 
TABS,ioos:station:wmo:42043:1,2005-07-02T14:30:00Z,28.9818,-94.9186,2.0,96.98223675,38.82795385,-99999.0,'11111222,11111222,99999999' 
TABS,ioos:station:wmo:42043:1,2005-07-02T15:00:00Z,28.9818,-94.9186,2.0,100.2385472,33.24945864,-99999.0,'11111222,11111222,99999999' 
TABS,ioos:station:wmo:42043:1,2005-07-02T15:30:00Z,28.9818,-94.9186,2.0,91.55243339,18.08663871,-99999.0,'11111222,11111222,99999999' 
TABS,ioos:station:wmo:42043:1,2005-07-02T16:00:00Z,28.9818,-94.9186,2.0,89.84313346,29.22010951,-99999.0,'11111222,11111222,99999999' 
TABS,ioos:station:wmo:42043:1,2005-07-02T16:30:00Z,28.9818,-94.9186,2.0,93.50728128,40.3756226,-99999.0,'11111222,11111222,99999999' 
TABS,ioos:station:wmo:42043:1,2005-07-02T17:00:00Z,28.9818,-94.9186,2.0,90.51549961,31.12125961,-99999.0,'11111222,11111222,99999999' 
TABS,ioos:station:wmo:42043:1,2005-07-02T17:30:00Z,28.9818,-94.9186,2.0,94.47155672,28.34628194,-99999.0,'11111222,11111222,99999999' 
TABS,ioos:station:wmo:42043:1,2005-07-02T18:00:00Z,28.9818,-94.9186,2.0,90.62093725,23.99140888,-99999.0,'11111222,11111222,99999999' 
TABS,ioos:station:wmo:42043:1,2005-07-02T18:30:00Z,28.9818,-94.9186,2.0,95.6019249,21.51274274,-99999.0,'11111222,11111222,99999999' 
TABS,ioos:station:wmo:42043:1,2005-07-02T19:00:00Z,28.9818,-94.9186,2.0,104.344525,18.93017961,-99999.0,'11111222,11111222,99999999' 
TABS,ioos:station:wmo:42043:1,2005-07-02T19:30:00Z,28.9818,-94.9186,2.0,103.1393982,17.20030814,-99999.0,'11111222,11111222,99999999' 
TABS,ioos:station:wmo:42043:1,2005-07-02T20:00:00Z,28.9818,-94.9186,2.0,97.33903627,19.25776726,-99999.0,'11111222,11111222,99999999' 
TABS,ioos:station:wmo:42043:1,2005-07-02T20:30:00Z,28.9818,-94.9186,2.0,94.26340064,26.63370046,-99999.0,'11111222,11111222,99999999' 
TABS,ioos:station:wmo:42043:1,2005-07-02T21:00:00Z,28.9818,-94.9186,2.0,91.25628209,18.24438544,-99999.0,'11111222,11111222,99999999' 
TABS,ioos:station:wmo:42043:1,2005-07-02T21:30:00Z,28.9818,-94.9186,2.0,91.48911117,23.85805734,-99999.0,'11111222,11111222,99999999' 
TABS,ioos:station:wmo:42043:1,2005-07-02T22:00:00Z,28.9818,-94.9186,2.0,87.36598005,16.5374726,-99999.0,'11111222,11111222,99999999' 
TABS,ioos:station:wmo:42043:1,2005-07-02T22:30:00Z,28.9818,-94.9186,2.0,80.01675369,9.402366723,-99999.0,'11133222,11111222,99999999' 
TABS,ioos:station:wmo:42043:1,2005-07-02T23:00:00Z,28.9818,-94.9186,2.0,78.262133,10.76511496,-99999.0,'11111222,11111222,99999999' 
TABS,ioos:station:wmo:42043:1,2005-07-02T23:30:00Z,28.9818,-94.9186,2.0,62.04486748,9.770020471,-99999.0,'11133222,11111222,99999999' 
TABS,ioos:station:wmo:42043:1,2005-07-03T00:00:00Z,28.9818,-94.9186,2.0,54.36712919,7.689791935,-99999.0,'11133222,11111222,99999999' 
TABS,ioos:station:wmo:42043:1,2005-07-03T00:30:00Z,28.9818,-94.9186,2.0,69.78905419,12.24389644,-99999.0,'11111222,11111222,99999999' 
TABS,ioos:station:wmo:42043:1,2005-07-03T01:00:00Z,28.9818,-94.9186,2.0,62.8885837,12.66119268,-99999.0,'11111222,11111222,99999999' 
TABS,ioos:station:wmo:42043:1,2005-07-03T01:30:00Z,28.9818,-94.9186,2.0,68.15499955,17.06540653,-99999.0,'11111222,11111222,99999999' 
TABS,ioos:station:wmo:42043:1,2005-07-03T02:00:00Z,28.9818,-94.9186,2.0,54.70844302,33.83883715,-99999.0,'11111222,11111222,99999999' 
TABS,ioos:station:wmo:42043:1,2005-07-03T02:30:00Z,28.9818,-94.9186,2.0,57.3860266,44.60298757,-99999.0,'11111222,11111222,99999999' 
TABS,ioos:station:wmo:42043:1,2005-07-03T03:00:00Z,28.9818,-94.9186,2.0,58.52158244,48.29766558,-99999.0,'11111222,11111222,99999999' 
TABS,ioos:station:wmo:42043:1,2005-07-03T03:30:00Z,28.9818,-94.9186,2.0,57.8970696,49.7701527,-99999.0,'11111222,11111222,99999999' 
TABS,ioos:station:wmo:42043:1,2005-07-03T04:00:00Z,28.9818,-94.9186,2.0,55.32582176,46.82637825,-99999.0,'11111222,11111222,99999999' 
TABS,ioos:station:wmo:42043:1,2005-07-03T04:30:00Z,28.9818,-94.9186,2.0,54.8886718,48.75095896,-99999.0,'11111222,11111222,99999999' 
TABS,ioos:station:wmo:42043:1,2005-07-03T05:00:00Z,28.9818,-94.9186,2.0,55.32733497,51.75004541,-99999.0,'11111222,11111222,99999999' 
TABS,ioos:station:wmo:42043:1,2005-07-03T05:30:00Z,28.9818,-94.9186,2.0,54.76194149,50.92064905,-99999.0,'11111222,11111222,99999999' 
TABS,ioos:station:wmo:42043:1,2005-07-03T06:00:00Z,28.9818,-94.9186,2.0,57.88826022,53.06888542,-99999.0,'11111222,11111222,99999999' 
TABS,ioos:station:wmo:42043:1,2005-07-03T06:30:00Z,28.9818,-94.9186,2.0,57.27717457,53.07295545,-99999.0,'11111222,11111222,99999999' 
TABS,ioos:station:wmo:42043:1,2005-07-03T07:00:00Z,28.9818,-94.9186,2.0,61.53023853,54.62601944,-99999.0,'11111222,11111222,99999999' 
TABS,ioos:station:wmo:42043:1,2005-07-03T07:30:00Z,28.9818,-94.9186,2.0,65.07132165,55.75449399,-99999.0,'11111222,11111222,99999999' 
TABS,ioos:station:wmo:42043:1,2005-07-03T08:00:00Z,28.9818,-94.9186,2.0,66.74572094,56.68501389,-99999.0,'11111222,11111222,99999999' 
TABS,ioos:station:wmo:42043:1,2005-07-03T08:30:00Z,28.9818,-94.9186,2.0,64.46983128,58.19197969,-99999.0,'11111222,11111222,99999999' 
TABS,ioos:station:wmo:42043:1,2005-07-03T09:00:00Z,28.9818,-94.9186,2.0,63.83151427,55.57656431,-99999.0,'11111222,11111222,99999999' 
TABS,ioos:station:wmo:42043:1,2005-07-03T09:30:00Z,28.9818,-94.9186,2.0,62.98343808,55.60826557,-99999.0,'11111222,11111222,99999999' 
TABS,ioos:station:wmo:42043:1,2005-07-03T10:00:00Z,28.9818,-94.9186,2.0,66.89295039,54.27427015,-99999.0,'11111222,11111222,99999999' 
TABS,ioos:station:wmo:42043:1,2005-07-03T10:30:00Z,28.9818,-94.9186,2.0,71.54688785,49.75844149,-99999.0,'11111222,11111222,99999999' 
TABS,ioos:station:wmo:42043:1,2005-07-03T11:00:00Z,28.9818,-94.9186,2.0,67.20574877,62.15413421,-99999.0,'11111222,11111222,99999999' 
TABS,ioos:station:wmo:42043:1,2005-07-03T11:30:00Z,28.9818,-94.9186,2.0,65.09464322,57.44184973,-99999.0,'11111222,11111222,99999999' 
TABS,ioos:station:wmo:42043:1,2005-07-03T12:00:00Z,28.9818,-94.9186,2.0,67.19855893,49.25947828,-99999.0,'11111222,11111222,99999999' 
TABS,ioos:station:wmo:42043:1,2005-07-03T12:30:00Z,28.9818,-94.9186,2.0,71.8659573,46.97311997,-99999.0,'11111222,11111222,99999999' 
TABS,ioos:station:wmo:42043:1,2005-07-03T13:00:00Z,28.9818,-94.9186,2.0,76.9947583,40.30381868,-99999.0,'11111222,11111222,99999999' 
TABS,ioos:station:wmo:42043:1,2005-07-03T13:30:00Z,28.9818,-94.9186,2.0,76.49969425,43.56372918,-99999.0,'11111222,11111222,99999999' 
TABS,ioos:station:wmo:42043:1,2005-07-03T14:00:00Z,28.9818,-94.9186,2.0,76.74589013,43.35485671,-99999.0,'11111222,11111222,99999999' 
TABS,ioos:station:wmo:42043:1,2005-07-03T14:30:00Z,28.9818,-94.9186,2.0,73.43778027,40.06215671,-99999.0,'11111222,11111222,99999999' 
TABS,ioos:station:wmo:42043:1,2005-07-03T15:00:00Z,28.9818,-94.9186,2.0,74.04118025,46.77264692,-99999.0,'11111222,11111222,99999999' 
TABS,ioos:station:wmo:42043:1,2005-07-03T15:30:00Z,28.9818,-94.9186,2.0,72.88026949,42.0219288,-99999.0,'11111222,11111222,99999999' 
TABS,ioos:station:wmo:42043:1,2005-07-03T16:00:00Z,28.9818,-94.9186,2.0,72.75997902,40.48912076,-99999.0,'11111222,11111222,99999999' 
TABS,ioos:station:wmo:42043:1,2005-07-03T16:30:00Z,28.9818,-94.9186,2.0,71.8703475,39.17485163,-99999.0,'11111222,11111222,99999999' 
TABS,ioos:station:wmo:42043:1,2005-07-03T17:00:00Z,28.9818,-94.9186,2.0,73.77852493,37.90920864,-99999.0,'11111222,11111222,99999999' 
TABS,ioos:station:wmo:42043:1,2005-07-03T17:30:00Z,28.9818,-94.9186,2.0,74.61475439,39.76503615,-99999.0,'11111222,11111222,99999999' 
TABS,ioos:station:wmo:42043:1,2005-07-03T18:00:00Z,28.9818,-94.9186,2.0,77.96336965,37.88287872,-99999.0,'11111222,11111222,99999999' 
TABS,ioos:station:wmo:42043:1,2005-07-03T18:30:00Z,28.9818,-94.9186,2.0,85.03164867,36.02535912,-99999.0,'11111222,11111222,99999999' 
TABS,ioos:station:wmo:42043:1,2005-07-03T19:00:00Z,28.9818,-94.9186,2.0,81.71840386,34.22691631,-99999.0,'11111222,11111222,99999999' 
TABS,ioos:station:wmo:42043:1,2005-07-03T19:30:00Z,28.9818,-94.9186,2.0,73.00319803,35.40652623,-99999.0,'11111222,11111222,99999999' 
TABS,ioos:station:wmo:42043:1,2005-07-03T20:00:00Z,28.9818,-94.9186,2.0,75.68017366,28.90817531,-99999.0,'11111222,11111222,99999999' 
TABS,ioos:station:wmo:42043:1,2005-07-03T20:30:00Z,28.9818,-94.9186,2.0,72.99144783,29.98135754,-99999.0,'11111222,11111222,99999999' 
TABS,ioos:station:wmo:42043:1,2005-07-03T21:00:00Z,28.9818,-94.9186,2.0,74.84514666,28.07642427,-99999.0,'11111222,11111222,99999999' 
TABS,ioos:station:wmo:42043:1,2005-07-03T21:30:00Z,28.9818,-94.9186,2.0,74.96744379,28.45373086,-99999.0,'11111222,11111222,99999999' 
TABS,ioos:station:wmo:42043:1,2005-07-03T22:00:00Z,28.9818,-94.9186,2.0,78.40964763,24.04020383,-99999.0,'11111222,11111222,99999999' 
TABS,ioos:station:wmo:42043:1,2005-07-03T22:30:00Z,28.9818,-94.9186,2.0,83.0257284,18.85954665,-99999.0,'11111222,11111222,99999999' 
TABS,ioos:station:wmo:42043:1,2005-07-03T23:00:00Z,28.9818,-94.9186,2.0,89.10831098,20.56249012,-99999.0,'11111222,11111222,99999999' 
TABS,ioos:station:wmo:42043:1,2005-07-03T23:30:00Z,28.9818,-94.9186,2.0,79.50259205,21.02184102,-99999.0,'11111222,11111222,99999999' 
TABS,ioos:station:wmo:42043:1,2005-07-04T00:00:00Z,28.9818,-94.9186,2.0,71.05201267,21.18810987,-99999.0,'11111222,11111222,99999999' 
TABS,ioos:station:wmo:42043:1,2005-07-04T00:30:00Z,28.9818,-94.9186,2.0,68.53608558,21.12506805,-99999.0,'11111222,11111222,99999999' 
TABS,ioos:station:wmo:42043:1,2005-07-04T01:00:00Z,28.9818,-94.9186,2.0,72.27004843,20.81884963,-99999.0,'11111222,11111222,99999999' 
TABS,ioos:station:wmo:42043:1,2005-07-04T01:30:00Z,28.9818,-94.9186,2.0,65.08965959,23.07689971,-99999.0,'11111222,11111222,99999999' 
TABS,ioos:station:wmo:42043:1,2005-07-04T02:00:00Z,28.9818,-94.9186,2.0,56.61404089,21.95256933,-99999.0,'11111222,11111222,99999999' 
TABS,ioos:station:wmo:42043:1,2005-07-04T02:30:00Z,28.9818,-94.9186,2.0,52.90008681,24.9002008,-99999.0,'11111222,11111222,99999999' 
TABS,ioos:station:wmo:42043:1,2005-07-04T03:00:00Z,28.9818,-94.9186,2.0,53.54088718,25.94866663,-99999.0,'11111222,11111222,99999999' 
TABS,ioos:station:wmo:42043:1,2005-07-04T03:30:00Z,28.9818,-94.9186,2.0,46.52641011,31.06007888,-99999.0,'11111222,11111222,99999999' 
TABS,ioos:station:wmo:42043:1,2005-07-04T04:00:00Z,28.9818,-94.9186,2.0,50.61428575,35.12786074,-99999.0,'11111222,11111222,99999999' 
TABS,ioos:station:wmo:42043:1,2005-07-04T04:30:00Z,28.9818,-94.9186,2.0,49.43422364,38.59627443,-99999.0,'11111222,11111222,99999999' 
TABS,ioos:station:wmo:42043:1,2005-07-04T05:00:00Z,28.9818,-94.9186,2.0,46.32473497,42.21141315,-99999.0,'11111222,11111222,99999999' 
TABS,ioos:station:wmo:42043:1,2005-07-04T05:30:00Z,28.9818,-94.9186,2.0,47.53037719,41.48397401,-99999.0,'11111222,11111222,99999999' 
TABS,ioos:station:wmo:42043:1,2005-07-04T06:00:00Z,28.9818,-94.9186,2.0,50.33595502,43.56980262,-99999.0,'11111222,11111222,99999999' 
TABS,ioos:station:wmo:42043:1,2005-07-04T06:30:00Z,28.9818,-94.9186,2.0,52.36854438,42.72977533,-99999.0,'11111222,11111222,99999999' 
TABS,ioos:station:wmo:42043:1,2005-07-04T07:00:00Z,28.9818,-94.9186,2.0,52.84580456,41.9065162,-99999.0,'11111222,11111222,99999999' 
TABS,ioos:station:wmo:42043:1,2005-07-04T07:30:00Z,28.9818,-94.9186,2.0,54.29594206,45.613441,-99999.0,'11111222,11111222,99999999' 
TABS,ioos:station:wmo:42043:1,2005-07-04T08:00:00Z,28.9818,-94.9186,2.0,57.45821835,44.15190709,-99999.0,'11111222,11111222,99999999' 
TABS,ioos:station:wmo:42043:1,2005-07-04T08:30:00Z,28.9818,-94.9186,2.0,59.10534422,46.97521155,-99999.0,'11111222,11111222,99999999' 
TABS,ioos:station:wmo:42043:1,2005-07-04T09:00:00Z,28.9818,-94.9186,2.0,60.26408211,47.94314654,-99999.0,'11111222,11111222,99999999' 
TABS,ioos:station:wmo:42043:1,2005-07-04T09:30:00Z,28.9818,-94.9186,2.0,66.41555368,46.78816944,-99999.0,'11111222,11111222,99999999' 
TABS,ioos:station:wmo:42043:1,2005-07-04T10:00:00Z,28.9818,-94.9186,2.0,67.91018839,45.73734142,-99999.0,'11111222,11111222,99999999' 
TABS,ioos:station:wmo:42043:1,2005-07-04T10:30:00Z,28.9818,-94.9186,2.0,71.78381368,39.76276902,-99999.0,'11111222,11111222,99999999' 
TABS,ioos:station:wmo:42043:1,2005-07-04T11:00:00Z,28.9818,-94.9186,2.0,71.3384513,39.97150235,-99999.0,'11111222,11111222,99999999' 
TABS,ioos:station:wmo:42043:1,2005-07-04T11:30:00Z,28.9818,-94.9186,2.0,74.71575747,36.19004974,-99999.0,'11111222,11111222,99999999' 
TABS,ioos:station:wmo:42043:1,2005-07-04T12:00:00Z,28.9818,-94.9186,2.0,72.92449596,37.18936542,-99999.0,'11111222,11111222,99999999' 
TABS,ioos:station:wmo:42043:1,2005-07-04T12:30:00Z,28.9818,-94.9186,2.0,78.45903922,35.98760342,-99999.0,'11111222,11111222,99999999' 
TABS,ioos:station:wmo:42043:1,2005-07-04T13:00:00Z,28.9818,-94.9186,2.0,81.66367264,40.07341513,-99999.0,'11111222,11111222,99999999' 
TABS,ioos:station:wmo:42043:1,2005-07-04T13:30:00Z,28.9818,-94.9186,2.0,82.82509433,39.87222091,-99999.0,'11111222,11111222,99999999' 
TABS,ioos:station:wmo:42043:1,2005-07-04T14:00:00Z,28.9818,-94.9186,2.0,79.24905815,41.00983541,-99999.0,'11111222,11111222,99999999' 
TABS,ioos:station:wmo:42043:1,2005-07-04T14:30:00Z,28.9818,-94.9186,2.0,77.68918799,39.63131212,-99999.0,'11111222,11111222,99999999' 
TABS,ioos:station:wmo:42043:1,2005-07-04T15:00:00Z,28.9818,-94.9186,2.0,77.45438973,36.92156551,-99999.0,'11111222,11111222,99999999' 
TABS,ioos:station:wmo:42043:1,2005-07-04T15:30:00Z,28.9818,-94.9186,2.0,75.76628705,35.18000142,-99999.0,'11111222,11111222,99999999' 
TABS,ioos:station:wmo:42043:1,2005-07-04T16:00:00Z,28.9818,-94.9186,2.0,73.9020833,35.59574272,-99999.0,'11111222,11111222,99999999' 